Weather History for Saranac Lake, NY

Change the Weather History Date:

Monday, March 26, 2012

  Actual Average Record
Temperature  
Mean Temperature 32 °F 29 °F  
Max Temperature 45 °F 40 °F 66 °F (1986)
Min Temperature 18 °F 17 °F -10 °F (1960)
Degree Days  
Heating Degree Days 33 36  
Month to date heating degree days 713 1083  
Since 1 July heating degree days 6461 7788  
Cooling Degree Days 0 0  
Month to date cooling degree days 0 0  
Year to date cooling degree days 0 0  
Moisture  
Dew Point 17 °F    
Average Humidity 63    
Maximum Humidity 92    
Minimum Humidity 33    
Precipitation  
Precipitation 0.06 in 0.08 in 0.65 in (2002)
Month to date precipitation 1.39 1.83  
Year to date precipitation 5.08 5.57  
Sea Level Pressure  
Sea Level Pressure 29.89 in    
Wind  
Wind Speed 10 mph (NW)    
Max Wind Speed 20 mph    
Max Gust Speed 35 mph    
Visibility 7 miles    
Events Rain , Snow    
T = Trace of Precipitation, MM = Missing Value Source: NWS Daily Summary

Daily Weather History Graph

Daily Weather History Graph

Search for Another Location

Airport:

Trip Planner

Search our weather history database for the weather conditions in past years. The results will help you decide how hot, cold, wet, or windy it might be!

Date:

Astronomy

Mar. 26, 2012 Rise Set
Actual Time 6:48 AM EDT 7:17 PM EDT
Civil Twilight 6:18 AM EDT 7:46 PM EDT
Nautical Twilight 5:44 AM EDT 8:20 PM EDT
Astronomical Twilight 5:09 AM EDT 8:56 PM EDT
Moon 8:25 AM EDT (3/26) 11:36 PM EDT (3/26)
Length of Visible Light 13h 27m
Length of Day
12h 29m
Waxing Crescent, 14% of the Moon is Illuminated
Mar 26
Waxing Crescent
Mar 30
First Quarter
Apr 6
Full
Apr 13
Last Quarter
Apr 21
New

Hourly Weather History & Observations

Time (EDT) Temp. Windchill Dew Point Humidity Pressure Visibility Wind Dir Wind Speed Gust Speed Precip Events Conditions
12:42 AM 44.6 °F 42.2 °F 42.8 °F 93% 29.67 in 7.0 mi WSW 4.6 mph - N/A   Overcast
12:51 AM 45.0 °F 41.8 °F 43.0 °F 93% 29.70 in 7.0 mi WSW 5.8 mph - N/A   Overcast
1:51 AM 44.1 °F 40.8 °F 42.1 °F 93% 29.68 in 3.0 mi Variable 5.8 mph - 0.02 in Rain Rain
2:47 AM 33.8 °F 24.3 °F 32.0 °F 93% 29.71 in 5.0 mi NNW 13.8 mph 25.3 mph 0.03 in   Overcast
2:51 AM 33.1 °F 23.4 °F 30.0 °F 89% 29.75 in 5.0 mi NNW 13.8 mph 25.3 mph 0.03 in   Overcast
3:06 AM 30.2 °F 20.8 °F 28.4 °F 93% 29.72 in 3.0 mi NNW 11.5 mph 26.5 mph 0.00 in Snow Light Snow
3:11 AM 30.2 °F 21.9 °F 28.4 °F 93% 29.73 in 2.5 mi NNW 9.2 mph 23.0 mph 0.00 in Snow Light Snow
3:18 AM 30.2 °F 20.8 °F 28.4 °F 93% 29.73 in 1.8 mi NNW 11.5 mph 21.9 mph 0.00 in Snow Light Snow
3:27 AM 30.2 °F 22.6 °F 28.4 °F 93% 29.74 in 1.8 mi NNW 8.1 mph 23.0 mph 0.00 in Snow Light Snow
3:33 AM 30.2 °F 23.4 °F 28.4 °F 93% 29.74 in 2.0 mi Variable 6.9 mph 18.4 mph 0.01 in Snow Light Snow
3:35 AM 30.2 °F 23.4 °F 28.4 °F 93% 29.74 in 1.8 mi Variable 6.9 mph 18.4 mph 0.01 in Snow Light Snow
3:47 AM 30.2 °F 22.6 °F 28.4 °F 93% 29.74 in 1.5 mi NW 8.1 mph - 0.01 in Snow Light Snow
3:51 AM 30.0 °F 23.2 °F 28.0 °F 92% 29.78 in 1.5 mi Variable 6.9 mph - 0.01 in Snow Light Snow
4:02 AM 30.2 °F 23.4 °F 26.6 °F 86% 29.75 in 2.5 mi Variable 6.9 mph 17.3 mph 0.00 in Snow Light Snow
4:08 AM 28.4 °F 21.2 °F 26.6 °F 93% 29.76 in 1.8 mi Variable 6.9 mph - 0.00 in Snow Light Snow
4:27 AM 28.4 °F 18.5 °F 26.6 °F 93% 29.76 in 1.8 mi NNW 11.5 mph 20.7 mph 0.00 in Snow Light Snow
4:36 AM 28.4 °F 19.1 °F 24.8 °F 86% 29.77 in 2.5 mi NW 10.4 mph 21.9 mph 0.00 in Snow Light Snow
4:47 AM 26.6 °F 15.7 °F 24.8 °F 93% 29.78 in 3.0 mi NW 12.7 mph 24.2 mph 0.00 in Snow Light Snow
4:51 AM 27.0 °F 18.0 °F 23.0 °F 85% 29.82 in 4.0 mi NW 9.2 mph 24.2 mph 0.00 in Snow Light Snow
5:17 AM 26.6 °F 18.2 °F 21.2 °F 80% 29.79 in 10.0 mi NNW 8.1 mph - 0.00 in   Overcast
5:51 AM 25.0 °F 15.5 °F 18.0 °F 75% 29.86 in 10.0 mi NNW 9.2 mph 18.4 mph 0.00 in   Overcast
6:42 AM 21.2 °F 10.1 °F 12.2 °F 68% 29.86 in 10.0 mi NNW 10.4 mph 20.7 mph N/A   Scattered Clouds
6:51 AM 21.9 °F 10.4 °F 12.0 °F 66% 29.91 in 10.0 mi NNW 11.5 mph 20.7 mph N/A   Partly Cloudy
7:39 AM 21.2 °F 9.5 °F 12.2 °F 68% 29.88 in 8.0 mi NNW 11.5 mph 19.6 mph N/A   Mostly Cloudy
7:51 AM 21.2 °F 12.6 °F 12.2 °F 68% 29.89 in 3.0 mi NW 6.9 mph 17.3 mph N/A Snow Light Snow
8:51 AM 21.0 °F 10.6 °F 10.0 °F 63% 29.97 in 10.0 mi North 9.2 mph 17.3 mph 0.00 in   Scattered Clouds
9:03 AM 21.2 °F 13.6 °F 10.4 °F 63% 29.92 in 10.0 mi Variable 5.8 mph 16.1 mph N/A   Mostly Cloudy
9:51 AM 19.9 °F 9.3 °F 9.0 °F 62% 29.99 in 10.0 mi NW 9.2 mph 19.6 mph 0.00 in   Overcast
10:28 AM 21.2 °F 10.9 °F 10.4 °F 63% 29.94 in 10.0 mi NW 9.2 mph 21.9 mph N/A   Overcast
10:51 AM 21.0 °F 10.6 °F 12.0 °F 68% 30.00 in 5.0 mi WNW 9.2 mph 20.7 mph 0.00 in Snow Light Snow
11:33 AM 21.2 °F 10.1 °F 8.6 °F 58% 29.96 in 10.0 mi NW 10.4 mph 20.7 mph 0.00 in   Overcast
11:51 AM 23.0 °F 11.1 °F 10.0 °F 58% 30.00 in 10.0 mi NNW 12.7 mph 25.3 mph 0.00 in   Overcast
12:51 PM 24.1 °F 13.7 °F 10.0 °F 55% 30.00 in 10.0 mi NNW 10.4 mph 21.9 mph N/A   Overcast
1:51 PM 26.1 °F 15.6 °F 9.0 °F 49% 30.00 in 10.0 mi NW 11.5 mph 23.0 mph N/A   Mostly Cloudy
2:51 PM 26.1 °F 16.2 °F 6.1 °F 43% 30.01 in 10.0 mi NW 10.4 mph 21.9 mph N/A   Mostly Cloudy
3:51 PM 26.1 °F 14.0 °F 5.0 °F 41% 30.03 in 10.0 mi NNW 15.0 mph 23.0 mph N/A   Mostly Cloudy
4:51 PM 26.1 °F 16.8 °F 3.0 °F 37% 30.04 in 10.0 mi NW 9.2 mph 23.0 mph N/A   Scattered Clouds
5:51 PM 26.1 °F 15.6 °F 1.9 °F 35% 30.06 in 10.0 mi WNW 11.5 mph 21.9 mph N/A   Clear
6:51 PM 24.1 °F 13.7 °F -0.0 °F 35% 30.09 in 10.0 mi NNW 10.4 mph 25.3 mph N/A   Clear
7:51 PM 23.0 °F 18.4 °F 1.9 °F 40% 30.11 in 10.0 mi Variable 3.5 mph 19.6 mph N/A   Clear
8:51 PM 21.9 °F 11.0 °F 1.0 °F 40% 30.14 in 10.0 mi NNW 10.4 mph 19.6 mph N/A   Clear
9:51 PM 21.0 °F 10.6 °F -0.9 °F 38% 30.17 in 10.0 mi NNW 9.2 mph 16.1 mph N/A   Clear
10:51 PM 19.9 °F 9.3 °F -0.9 °F 40% 30.18 in 10.0 mi NW 9.2 mph 21.9 mph N/A   Clear
11:51 PM 19.0 °F 7.5 °F -2.0 °F 40% 30.19 in 10.0 mi NNW 10.4 mph 20.7 mph N/A   Clear